Regional Weather Roundup
Issued by NWS

Home | Current Version | Previous Version | Text Only | Print | Product List | Glossary Off
Versions: 1 2 3 4 5 6 7 8 9 10 11 12 13 14 15 16 17 18 19 20 21 22 23 24 25 26 27 28 29 30 31 32 33 34 35 36 37 38 39 40 41 42 43 44 45 46 47 48 49 50

000
ASUS45 KCYS 261310
RWRWY

WYOMING REGIONAL WEATHER ROUNDUP
NATIONAL WEATHER SERVICE CHEYENNE WY
700 AM MDT THU MAY 26 2016

NOTE:  "FAIR" INDICATES FEW OR NO CLOUDS BELOW 12,000 FEET
WITH NO SIGNIFICANT WEATHER AND/OR OBSTRUCTIONS TO VISIBILITY.

WYZ001-261400-
YELLOWSTONE NATIONAL PARK

CITY           SKY/WX    TMP DP  RH WIND       PRES   REMARKS
LK YELLOWSTONE   N/A     33  31  92 CALM      30.12S
W YELLOWSTONE  NOT AVBL

$$
WYZ002>013-054>058-071-098>099-261400-
NORTHERN WYOMING

CITY           SKY/WX    TMP DP  RH WIND       PRES   REMARKS
JACKSON        MOSUNNY   34  34 100 CALM      30.10S
CODY           CLOUDY    43  41  93 CALM      29.99S
GREYBULL       CLOUDY    50  46  86 NW6       29.97R
WORLAND        FAIR      45  43  93 S7        29.97S
SHERIDAN       FAIR      49  43  80 CALM      29.95R
BUFFALO        PTSUNNY   48  38  68 W12       29.97S
GILLETTE       CLOUDY    47  41  80 W12       29.95R
HULETT         FAIR      48  45  87 SW5       29.95S
NEWCASTLE      FAIR      46  37  71 CALM      29.97S

$$
WYZ014>020-022>026-101>103-261400-
CENTRAL WYOMING

CITY           SKY/WX    TMP DP  RH WIND       PRES   REMARKS
BIG PINEY      FAIR      33  30  88 W3        30.08R
PINEDALE       FAIR      34  32  93 NW10      30.08S WCI  26
DUBOIS         FAIR      41  32  70 NW10      30.06R
LANDER         FAIR      43  31  62 CALM      30.00R
RIVERTON       FAIR      47  34  60 W6        30.01R
CASPER         FAIR      43  37  79 W8        30.00R
DOUGLAS          N/A    N/A N/A N/A MISG      30.00R

$$
WYZ021-027>030-104>119-261400-
SOUTHERN WYOMING

CITY           SKY/WX    TMP DP  RH WIND       PRES   REMARKS
EVANSTON       FAIR      36  33  89 CALM      30.08R
KEMMERER         N/A     36  32  87 N6        30.10R WCI  31
FORT BRIDGER   SUNNY     39  39 100 W6        30.11R WCI  35
ROCK SPRINGS   FAIR      38  35  89 SW6       30.07S WCI  33
DIXON          FAIR      38  31  77 E5        30.08F WCI  34
RAWLINS        FAIR      39  33  79 CALM      30.06R
SARATOGA       FAIR      36  32  87 S6        30.08S WCI  31
LARAMIE        FAIR      37  32  82 S3        30.06S
CHEYENNE       FAIR      44  34  67 NW7       30.02S
TORRINGTON     FAIR      48  40  73 CALM      29.95S
PINE BLUFFS    FAIR      41  37  87 SW3       30.01S

$$



USA.gov is the U.S. government's official web portal to all federal, state and local government web resources and services.